Home > Time Zones > World Clock > Weather > U.S.A. > Hilo > Past weeks

Flag for U.S.A. Weather past 2 weeks in Hilo, Hawaii, U.S.A.

Now
76 °F

Clear.


Feels Like: 77 °F
Forecast: 72 / 81 °F
Wind: 5 mph from Southwest

Location: Hilo International Airport

Current Time: Sep 15, 2014 at 11:30:49 PM

Latest Report: Sep 15, 2014 at 10:53 PM


Visibility: 10 mi

Pressure: 29.95 "Hg

Humidity: 82%

Dew point: 70 °F

Location of HiloLocation

Historic Weather in Hilo — Graph

°F

Hilo temperature yesterday

Maximum temperature yesterday: 86 °F (at 9:53 AM)
Minimum temperature yesterday: 70 °F (at 5:53 AM)
Average temperature yesterday: 78 °F

Past Weeks' High & Low Weather Summary

 TemperatureHumidityPressure
High88 °F (Sep 7, 11:53 AM)94% (Aug 31, 9:25 PM)30.06 "Hg (Aug 31, 9:25 PM)
Low67 °F (Sep 4, 5:53 AM)49% (Sep 6, 11:53 AM)29.87 "Hg (Sep 14, 3:53 PM)
Average78 °F75%29.97 "Hg
* Reported Aug 31 9:25 PM — Sep 15 9:53 PM, Hilo, Weather by CustomWeather, © 2014

Note: Actual official high and low records may vary slightly from our data, if they occured in-between our weather recording intervals... More about our weather records

Advertising

Hilo weather history for previous 24 hours

 ConditionsComfort  
Time TempWeatherWind HumidityBarometerVisibility
9:53 PM
Sep 15
79 °FOvercast.6 mph77%29.95 "Hg10 mi
8:53 PM80 °FOvercast.5 mph79%29.95 "Hg10 mi
7:53 PM81 °FOvercast.7 mph74%29.93 "Hg10 mi
6:53 PM81 °FOvercast.7 mph74%29.91 "Hg10 mi
5:53 PM82 °FOvercast.12 mph72%29.89 "Hg10 mi
4:53 PM84 °FOvercast.10 mph70%29.88 "Hg10 mi
3:53 PM86 °FScattered clouds.12 mph65%29.87 "Hg10 mi
2:53 PM85 °FOvercast.14 mph68%29.88 "Hg10 mi
1:53 PM86 °FScattered clouds.13 mph65%29.88 "Hg10 mi
12:53 PM85 °FScattered clouds.9 mph68%29.90 "Hg10 mi
11:53 AM85 °FScattered clouds.12 mph68%29.92 "Hg10 mi
10:53 AM85 °FPassing clouds.9 mph61%29.93 "Hg10 mi
9:53 AM87 °FScattered clouds.8 mph57%29.94 "Hg10 mi
8:53 AM85 °FScattered clouds.No wind57%29.94 "Hg10 mi
7:53 AM80 °FPassing clouds.No wind56%29.93 "Hg10 mi
6:53 AM73 °FSunny.6 mph66%29.92 "Hg10 mi
5:53 AM71 °FClear.7 mph71%29.91 "Hg10 mi
4:53 AM71 °FClear.7 mph71%29.90 "Hg10 mi
3:53 AM71 °FClear.7 mph73%29.89 "Hg10 mi
2:53 AM72 °FClear.7 mph73%29.90 "Hg10 mi
1:53 AM72 °FClear.6 mph73%29.90 "Hg10 mi
12:53 AM72 °FClear.7 mph76%29.91 "Hg10 mi
11:53 PM
Sep 14
73 °FClear.6 mph81%29.92 "Hg10 mi
Weather by CustomWeather, © 2014

See weather overviewHow to use our weather pages